SCP
0 0 0 0 0 0 0 0 0 0 0 0 0 0 0 0 0 0 0 0 0 0
0 0 0 0 0 0 0 0 0 0 0 0 0 0 0 0 0 0 0 0 0 0
0 0 0 0 0 0 0 0 0 0 0 0 0 0 0 0 0 0 0 0 0 0
0 0 0 0 0 0 0 0 0 0 0 0 0 0 0 0 0 0 0 0 0 0
0 0 0 0 0 0 0 0 0 0 0 0 0 0 0 0 0 0 0 0 0 0
0 0 0 0 0 0 0 0 0 0 0 0 0 0 0 0 0 0 0 0 0 0
0 0 0 0 0 0 0 0 0 0 0 0 0 0 0 0 0 0 0 0 0 0
0 0 0 0 0 0 0 0 0 0 0 0 0 0 0 0 0 0 0 0 0 0
0 0 0 0 0 0 0 0 0 0 0 0 0 0 0 0 0 0 0 0 0 0
0 0 0 0 0 0 0 0 0 0 0 0 0 0 0 0 0 0 0 0 0 0
0 0 0 0 0 0 0 0 0 0 0 0 0 0 0 0 0 0 0 0 0 0
0 0 0 0 0 0 0 0 0 0 0 0 0 0 0 0 0 0 0 0 0 0
0 0 0 0 0 0 0 0 0 0 0 0 0 0 0 0 0 0 0 0 0 0
0 0 0 0 0 0 0 0 0 0 0 0 0 0 0 0 0 0 0 0 0 0
Wind_Speed_500mb
19 12 11 7 4 5 2 6 9 13 16 19 20 20 21 21 21 20 21 21 21 22
7 4 8 9 5 3 2 6 10 13 15 17 17 18 18 19 19 19 19 21 23 25
17 13 12 8 3 5 8 11 12 13 14 14 14 14 15 16 17 19 22 25 27 28
12 13 8 5 2 3 7 10 12 12 12 12 13 14 16 18 19 22 25 27 30 32
12 8 5 1 2 5 7 9 11 12 12 12 13 14 16 20 22 24 28 31 33 35
11 8 5 2 4 6 8 11 12 13 14 13 14 16 18 21 24 27 30 32 34 38
11 9 6 4 6 9 11 13 15 14 15 15 15 18 21 23 27 28 31 32 35 40
12 9 6 7 10 12 13 15 16 17 19 19 20 21 23 25 27 30 32 33 37 40
13 9 8 10 11 14 16 18 19 21 22 23 22 22 24 26 29 32 35 38 38 43
14 10 11 13 16 18 20 21 22 23 25 25 26 26 28 29 32 36 37 39 41 43
14 14 16 17 19 21 22 23 24 27 28 29 29 30 32 34 33 36 38 41 43 46
17 20 19 20 21 23 24 26 29 29 30 31 31 33 34 37 38 39 41 44 45 48
23 19 20 21 23 25 28 29 31 31 32 33 35 37 38 40 41 43 45 45 46 48
21 20 22 24 26 27 30 30 31 32 35 37 38 38 40 42 44 46 48 49 50 51
Wind_Direction_500mb
145 145 183 266 176 146 277 347 356 355 349 349 349 350 350 349 349 349 349 350 351 351
165 141 145 147 212 281 5 6 359 352 346 345 346 346 346 347 350 352 348 350 349 347
161 170 185 185 124 26 359 357 354 345 341 342 345 348 352 351 349 346 344 346 344 342
161 155 148 138 91 348 343 344 341 341 342 345 350 351 352 350 348 343 343 341 340 339
157 157 171 181 310 335 335 338 343 339 340 343 344 345 345 343 342 340 339 338 337 335
175 180 198 226 294 315 338 340 340 336 328 331 332 332 335 336 337 338 336 335 334 335
185 200 209 256 306 326 333 334 328 323 313 316 318 322 327 331 332 332 334 336 337 337
200 208 242 298 310 320 320 318 314 310 309 311 312 314 318 325 328 333 334 336 337 338
210 231 266 285 301 309 310 309 305 304 301 296 300 305 312 320 326 329 330 333 335 334
224 244 270 287 293 296 296 298 299 298 293 293 298 304 309 317 322 323 325 325 327 328
237 256 270 278 286 288 292 298 298 293 291 291 295 301 306 309 314 315 319 321 325 322
246 254 264 277 284 289 298 298 294 290 287 286 291 295 299 303 310 311 316 315 318 322
244 254 269 279 289 295 295 293 289 286 286 288 292 294 298 301 304 306 306 312 317 319
247 260 274 283 287 292 289 288 289 290 290 289 290 292 296 301 303 306 307 312 315 318
Wind_Speed_850mb
19 12 11 7 4 5 2 6 9 13 16 19 20 20 21 21 21 20 21 21 21 22
7 4 8 9 5 3 2 6 10 13 15 17 17 18 18 19 19 19 19 21 23 25
17 13 12 8 3 5 8 11 12 13 14 14 14 14 15 16 17 19 22 25 27 28
12 13 8 5 2 3 7 10 12 12 12 12 13 14 16 18 19 22 25 27 30 32
12 8 5 1 2 5 7 9 11 12 12 12 13 14 16 20 22 24 28 31 33 35
11 8 5 2 4 6 8 11 12 13 14 13 14 16 18 21 24 27 30 32 34 38
11 9 6 4 6 9 11 13 15 14 15 15 15 18 21 23 27 28 31 32 35 40
12 9 6 7 10 12 13 15 16 17 19 19 20 21 23 25 27 30 32 33 37 40
13 9 8 10 11 14 16 18 19 21 22 23 22 22 24 26 29 32 35 38 38 43
14 10 11 13 16 18 20 21 22 23 25 25 26 26 28 29 32 36 37 39 41 43
14 14 16 17 19 21 22 23 24 27 28 29 29 30 32 34 33 36 38 41 43 46
17 20 19 20 21 23 24 26 29 29 30 31 31 33 34 37 38 39 41 44 45 48
23 19 20 21 23 25 28 29 31 31 32 33 35 37 38 40 41 43 45 45 46 48
21 20 22 24 26 27 30 30 31 32 35 37 38 38 40 42 44 46 48 49 50 51
Wind_Direction_850mb
145 145 183 266 176 146 277 347 356 355 349 349 349 350 350 349 349 349 349 350 351 351
165 141 145 147 212 281 5 6 359 352 346 345 346 346 346 347 350 352 348 350 349 347
161 170 185 185 124 26 359 357 354 345 341 342 345 348 352 351 349 346 344 346 344 342
161 155 148 138 91 348 343 344 341 341 342 345 350 351 352 350 348 343 343 341 340 339
157 157 171 181 310 335 335 338 343 339 340 343 344 345 345 343 342 340 339 338 337 335
175 180 198 226 294 315 338 340 340 336 328 331 332 332 335 336 337 338 336 335 334 335
185 200 209 256 306 326 333 334 328 323 313 316 318 322 327 331 332 332 334 336 337 337
200 208 242 298 310 320 320 318 314 310 309 311 312 314 318 325 328 333 334 336 337 338
210 231 266 285 301 309 310 309 305 304 301 296 300 305 312 320 326 329 330 333 335 334
224 244 270 287 293 296 296 298 299 298 293 293 298 304 309 317 322 323 325 325 327 328
237 256 270 278 286 288 292 298 298 293 291 291 295 301 306 309 314 315 319 321 325 322
246 254 264 277 284 289 298 298 294 290 287 286 291 295 299 303 310 311 316 315 318 322
244 254 269 279 289 295 295 293 289 286 286 288 292 294 298 301 304 306 306 312 317 319
247 260 274 283 287 292 289 288 289 290 290 289 290 292 296 301 303 306 307 312 315 318